FW9201 Weather Reports


time (UTC)temp
C
wind
direction
speed
KPH
gust
KPH
rain 1hr
cm
rain 24hr
cm
rain mn
cm
humidity
%
barometer
mb
20260504160141 10 252 1.6 3.2 0.00 0.00 0.00 54 1016.0
20260504151109 9 248 0.0 0.0 0.00 0.00 0.00 56 1016.2
20260504150606 9 243 0.0 0.0 0.00 0.00 0.00 57 1016.1
20260504150103 9 245 0.0 0.0 0.00 0.00 0.00 58 1016.1
20260504141032 8 283 0.0 0.0 0.00 0.00 0.00 57 1015.8
20260504140528 8 246 0.0 0.0 0.00 0.00 0.00 57 1015.9
20260504130453 8 229 0.0 0.0 0.00 0.00 0.00 58 1015.4
20260504110340 8 269 3.2 11.3 0.00 0.00 0.00 53 1015.9
20260504100257 10 299 8.0 12.9 0.00 0.00 0.00 45 1015.5
20260504081651 11 260 0.0 0.0 0.00 0.00 0.00 41 1014.5
20260504081147 11 271 4.8 8.0 0.00 0.00 0.00 41 1014.3
20260504080643 11 321 3.2 9.7 0.00 0.00 0.00 41 1014.3
20260504080140 11 300 8.0 9.7 0.00 0.00 0.00 41 1014.2
20260504070108 15 330 17.7 20.9 0.00 0.00 0.00 36 1010.8
20260504050456 11 223 0.0 0.0 0.00 0.00 0.00 42 1008.9
20260504045953 11 233 0.0 0.0 0.00 0.00 0.00 42 1008.6
20260504045449 12 233 0.0 0.0 0.00 0.00 0.00 40 1008.6
20260504044945 12 243 0.0 0.0 0.00 0.00 0.00 41 1008.6
20260504044443 12 227 0.0 0.0 0.00 0.00 0.00 37 1008.6
20260504043940 12 235 0.0 0.0 0.00 0.00 0.00 37 1008.8
20260504043437 13 225 0.0 0.0 0.00 0.00 0.00 36 1008.8
20260504042935 12 235 0.0 0.0 0.00 0.00 0.00 37 1008.9
20260504042431 13 227 0.0 0.0 0.00 0.00 0.00 37 1008.5
20260504041928 13 236 0.0 0.0 0.00 0.00 0.00 37 1008.6
20260504041424 13 217 0.0 0.0 0.00 0.00 0.00 35 1008.4
20260504040920 13 216 0.0 0.0 0.00 0.00 0.00 35 1008.5
20260504040418 13 227 0.0 0.0 0.00 0.00 0.00 34 1008.5
20260504035914 13 235 0.0 0.0 0.00 0.00 0.00 37 1008.6
20260504035411 14 219 0.0 0.0 0.00 0.00 0.00 33 1008.5
20260504034908 14 211 0.0 0.0 0.00 0.00 0.00 33 1008.4
20260504034405 15 197 0.0 0.0 0.00 0.00 0.00 32 1008.2
20260504033902 15 230 0.0 0.0 0.00 0.00 0.00 31 1008.1
20260504033400 16 243 0.0 0.0 0.00 0.00 0.00 31 1008.1
20260504032857 15 224 0.0 0.0 0.00 0.00 0.00 29 1008.0
20260504032354 16 245 0.0 0.0 0.00 0.00 0.00 30 1008.2
20260504031850 16 227 0.0 0.0 0.00 0.00 0.00 28 1008.1
20260504031348 16 219 0.0 0.0 0.00 0.00 0.00 29 1007.8
20260504030844 17 222 0.0 0.0 0.00 0.00 0.00 28 1007.9
20260504030341 17 233 0.0 0.0 0.00 0.00 0.00 27 1007.6
20260504025837 17 229 0.0 0.0 0.00 0.00 0.00 27 1007.5
20260504025334 17 231 0.0 0.0 0.00 0.00 0.00 26 1007.8
20260504024831 17 240 0.0 0.0 0.00 0.00 0.00 26 1007.2
20260504024327 18 237 0.0 0.0 0.00 0.00 0.00 26 1007.4
20260504023824 18 233 0.0 0.0 0.00 0.00 0.00 25 1007.3
20260504023321 18 224 0.0 0.0 0.00 0.00 0.00 23 1007.4
20260504022817 19 220 0.0 0.0 0.00 0.00 0.00 23 1007.3
20260504022314 20 241 0.0 0.0 0.00 0.00 0.00 26 1007.4
20260504021810 20 226 0.0 0.0 0.00 0.00 0.00 22 1007.3
20260504021308 20 217 0.0 0.0 0.00 0.00 0.00 22 1007.2
20260504020804 20 215 0.0 0.0 0.00 0.00 0.00 21 1007.3
20260504020301 20 221 0.0 0.0 0.00 0.00 0.00 21 1007.3
20260504015757 20 225 0.0 0.0 0.00 0.00 0.00 22 1007.1
20260504015254 20 268 0.0 0.0 0.00 0.00 0.00 21 1007.2
20260504014750 21 243 0.0 0.0 0.00 0.00 0.00 22 1007.0
20260504014246 21 222 0.0 0.0 0.00 0.00 0.00 21 1007.3
20260504013744 21 234 0.0 0.0 0.00 0.00 0.00 21 1007.4
20260504013242 21 211 0.0 0.0 0.00 0.00 0.00 20 1007.2
20260504012738 21 243 0.0 0.0 0.00 0.00 0.00 20 1007.4
20260504012236 21 229 0.0 0.0 0.00 0.00 0.00 22 1007.3
20260504011732 21 246 0.0 0.0 0.00 0.00 0.00 22 1007.1
20260504011229 21 226 0.0 0.0 0.00 0.00 0.00 24 1007.3
20260504010725 21 228 0.0 0.0 0.00 0.00 0.00 22 1007.4
20260504010221 22 150 0.0 0.0 0.00 0.00 0.00 19 1007.2
20260504005718 22 225 0.0 0.0 0.00 0.00 0.00 20 1007.3
20260504005215 22 160 9.7 11.3 0.00 0.00 0.00 21 1007.2
20260504004713 22 233 0.0 0.0 0.00 0.00 0.00 19 1007.3
20260504004209 22 143 9.7 11.3 0.00 0.00 0.00 19 1007.4
20260504003706 22 151 16.1 17.7 0.00 0.00 0.00 19 1007.3
20260504003203 22 123 0.0 0.0 0.00 0.00 0.00 20 1007.4
20260504002700 22 204 0.0 0.0 0.00 0.00 0.00 19 1007.2
20260504002157 22 231 0.0 0.0 0.00 0.00 0.00 20 1007.6
20260504001655 23 142 6.4 8.0 0.00 0.00 0.00 19 1007.5
20260504001151 23 159 6.4 8.0 0.00 0.00 0.00 19 1007.5
20260504000648 23 225 1.6 1.6 0.00 0.00 0.00 20 1007.5
20260504000145 23 214 1.6 3.2 0.00 0.00 0.00 18 1007.4
20260503235643 23 254 0.0 0.0 0.00 0.00 0.00 18 1007.9
20260503235140 23 180 1.6 4.8 0.00 0.00 0.00 18 1007.8
20260503234638 23 227 0.0 0.0 0.00 0.00 0.00 21 1007.6
20260503234136 23 326 1.6 3.2 0.00 0.00 0.00 19 1007.6
20260503233632 23 155 6.4 9.7 0.00 0.00 0.00 21 1007.8
20260503233128 23 202 0.0 0.0 0.00 0.00 0.00 21 1007.8
20260503232625 23 202 0.0 1.6 0.00 0.00 0.00 22 1007.4
20260503232122 23 165 16.1 20.9 0.00 0.00 0.00 22 1007.9
20260503231620 23 142 11.3 12.9 0.00 0.00 0.00 21 1007.8
20260503231117 23 198 6.4 11.3 0.00 0.00 0.00 21 1007.9
20260503230614 23 172 9.7 12.9 0.00 0.00 0.00 21 1008.1
20260503230111 23 144 11.3 14.5 0.00 0.00 0.00 20 1007.9
20260503225608 23 189 4.8 9.7 0.00 0.00 0.00 21 1007.9
20260503225108 23 147 1.6 8.0 0.00 0.00 0.00 22 1008.0
20260503224606 23 159 16.1 17.7 0.00 0.00 0.00 22 1008.2
20260503224103 23 145 9.7 12.9 0.00 0.00 0.00 23 1008.2
20260503223601 23 177 9.7 11.3 0.00 0.00 0.00 21 1008.2
20260503223056 23 166 9.7 12.9 0.00 0.00 0.00 21 1008.3
20260503222555 23 127 16.1 17.7 0.00 0.00 0.00 21 1008.3
20260503222052 23 158 12.9 14.5 0.00 0.00 0.00 22 1008.3
20260503221550 23 162 9.7 12.9 0.00 0.00 0.00 22 1008.5
20260503221047 23 131 11.3 12.9 0.00 0.00 0.00 23 1008.4
20260503220543 23 148 0.0 0.0 0.00 0.00 0.00 22 1008.8
20260503220041 23 168 0.0 1.6 0.00 0.00 0.00 21 1009.0
20260503215537 23 150 12.9 14.5 0.00 0.00 0.00 22 1008.9
20260503215034 23 116 8.0 9.7 0.00 0.00 0.00 26 1008.9
20260503214533 23 183 9.7 12.9 0.00 0.00 0.00 22 1008.9
20260503214029 23 152 9.7 11.3 0.00 0.00 0.00 24 1009.0
20260503213528 23 119 6.4 9.7 0.00 0.00 0.00 24 1009.5
20260503213024 22 148 12.9 14.5 0.00 0.00 0.00 23 1009.2
20260503212521 22 180 20.9 24.1 0.00 0.00 0.00 24 1009.3
20260503212019 23 163 14.5 16.1 0.00 0.00 0.00 23 1009.6
20260503211515 23 161 8.0 11.3 0.00 0.00 0.00 26 1009.5
20260503211011 23 153 12.9 12.9 0.00 0.00 0.00 24 1009.4
20260503210508 22 168 1.6 3.2 0.00 0.00 0.00 26 1009.4
20260503210004 22 159 16.1 17.7 0.00 0.00 0.00 26 1009.9
20260503205500 23 167 4.8 8.0 0.00 0.00 0.00 26 1010.1
20260503204956 22 229 1.6 3.2 0.00 0.00 0.00 26 1010.1
20260503204454 22 163 12.9 14.5 0.00 0.00 0.00 29 1009.9
20260503203950 22 131 8.0 9.7 0.00 0.00 0.00 25 1010.1
20260503203448 22 121 8.0 9.7 0.00 0.00 0.00 29 1009.9
20260503202944 22 136 19.3 25.7 0.00 0.00 0.00 26 1010.3
20260503202443 22 149 8.0 9.7 0.00 0.00 0.00 26 1010.4
20260503201941 22 148 11.3 12.9 0.00 0.00 0.00 27 1010.5
20260503201438 22 191 11.3 14.5 0.00 0.00 0.00 26 1010.5
20260503200936 22 132 8.0 11.3 0.00 0.00 0.00 28 1010.4
20260503200432 22 164 11.3 12.9 0.00 0.00 0.00 29 1010.5
20260503195928 22 128 4.8 9.7 0.00 0.00 0.00 31 1010.4
20260503195426 22 183 0.0 0.0 0.00 0.00 0.00 27 1010.8
20260503194922 22 177 11.3 12.9 0.00 0.00 0.00 30 1010.9
20260503194419 22 181 9.7 12.9 0.00 0.00 0.00 28 1010.8
20260503193914 22 172 0.0 0.0 0.00 0.00 0.00 29 1011.0
20260503193410 21 161 8.0 11.3 0.00 0.00 0.00 28 1011.1
20260503192906 21 144 0.0 1.6 0.00 0.00 0.00 29 1011.2
20260503192402 21 154 6.4 9.7 0.00 0.00 0.00 31 1011.3
20260503191858 21 82 0.0 1.6 0.00 0.00 0.00 32 1011.4
20260503191356 21 227 3.2 8.0 0.00 0.00 0.00 28 1011.5
20260503190852 21 165 0.0 1.6 0.00 0.00 0.00 29 1011.6
20260503190349 21 188 3.2 8.0 0.00 0.00 0.00 30 1011.6
20260503185846 21 138 11.3 16.1 0.00 0.00 0.00 31 1011.6
20260503185342 21 176 14.5 16.1 0.00 0.00 0.00 30 1011.6
20260503184837 21 134 0.0 1.6 0.00 0.00 0.00 32 1011.8
20260503184333 21 200 11.3 14.5 0.00 0.00 0.00 32 1011.9
20260503183829 20 151 8.0 9.7 0.00 0.00 0.00 32 1011.9
20260503183326 20 146 11.3 14.5 0.00 0.00 0.00 32 1012.0
20260503182824 20 132 6.4 11.3 0.00 0.00 0.00 31 1012.0
20260503182323 20 177 11.3 12.9 0.00 0.00 0.00 31 1012.1
20260503181819 20 97 0.0 0.0 0.00 0.00 0.00 33 1012.2
20260503181317 20 148 12.9 14.5 0.00 0.00 0.00 31 1012.4
20260503180813 20 158 11.3 14.5 0.00 0.00 0.00 32 1012.2
20260503180311 20 103 4.8 4.8 0.00 0.00 0.00 33 1012.3
20260503175807 20 193 8.0 11.3 0.00 0.00 0.00 32 1012.4
20260503175305 20 165 8.0 9.7 0.00 0.00 0.00 29 1012.6
20260503174800 20 192 0.0 0.0 0.00 0.00 0.00 31 1012.9
20260503174259 20 187 0.0 0.0 0.00 0.00 0.00 33 1012.8
20260503173754 19 160 4.8 4.8 0.00 0.00 0.00 35 1012.8
20260503173250 19 151 8.0 9.7 0.00 0.00 0.00 41 1013.0
20260503172747 19 109 0.0 0.0 0.00 0.00 0.00 41 1012.8
20260503172244 18 155 4.8 8.0 0.00 0.00 0.00 41 1013.2
20260503171741 18 155 0.0 0.0 0.00 0.00 0.00 40 1013.2
20260503171238 18 183 0.0 0.0 0.00 0.00 0.00 41 1013.3
20260503170735 18 163 0.0 1.6 0.00 0.00 0.00 43 1013.4
20260503170231 17 119 4.8 8.0 0.00 0.00 0.00 43 1013.3